Voltar ao catálogo

CZ-6A DEB

AtivoPO
NORAD 61388·DEBRIS·🇨🇳 China

Lançado Aug 6, 2024 de Taiyuan Satellite Launch Center

Loading…

Próximas Passagens (próximas 24 horas)

TLE

AtualizadoSource: Space-Track

Época: Sep 14, 2026, 05:32 UTC

1 61388U 24140XD  26257.23055876  .00002657  00000-0  67574-3 0  9997
2 61388  88.8382 245.7080 0070220   6.2721 353.9347 14.48964020106874

Acompanhe CZ-6A DEB em tempo real com AllMySat

Download on the App Store